This is the latest recevied weather packets stored in our database for station/object SP9KB-14. If no packets are shown the sender has not sent any weather packets the latest 10 day(s).
| Time | Temp. | Humidity | Pressure | Rain* | Wind** | Luminosity | Snow |
|---|---|---|---|---|---|---|---|
| 1778070854 | 23.33° C | 52% | 1031.1 hPa | 0 mm | - | - | - |
| 1778070554 | 23.33° C | 53% | 1030.9 hPa | 0 mm | - | - | - |
| 1778070253 | 24.44° C | 52% | 1030.8 hPa | 0 mm | - | - | - |
| 1778069953 | 24.44° C | 53% | 1030.9 hPa | 0 mm | - | - | - |
| 1778069652 | 23.33° C | 52% | 1030.9 hPa | 0 mm | - | - | - |
| 1778069351 | 23.89° C | 54% | 1030.6 hPa | 0 mm | - | - | - |
| 1778069051 | 23.89° C | 54% | 1030.9 hPa | 0 mm | - | - | - |
| 1778068750 | 23.89° C | 53% | 1030.9 hPa | 0 mm | - | - | - |
| 1778068450 | 23.89° C | 52% | 1030.8 hPa | 0 mm | - | - | - |
| 1778068149 | 23.33° C | 54% | 1030.7 hPa | 0 mm | - | - | - |
| 1778067848 | 23.33° C | 54% | 1030.7 hPa | 0 mm | - | - | - |
| 1778067548 | 23.33° C | 53% | 1030.9 hPa | 0 mm | - | - | - |
| 1778067247 | 23.33° C | 55% | 1030.7 hPa | 0 mm | - | - | - |
| 1778066946 | 23.33° C | 56% | 1030.7 hPa | 0 mm | - | - | - |
| 1778066646 | 23.33° C | 55% | 1030.8 hPa | 0 mm | - | - | - |
| 1778066346 | 23.33° C | 55% | 1031 hPa | 0 mm | - | - | - |
| 1778066045 | 23.33° C | 56% | 1030.6 hPa | 0 mm | - | - | - |
| 1778065745 | 23.33° C | 55% | 1030.8 hPa | 0 mm | - | - | - |
| 1778065444 | 23.33° C | 56% | 1030.9 hPa | 0 mm | - | - | - |
| 1778065143 | 22.78° C | 56% | 1031 hPa | 0 mm | - | - | - |
| 1778064842 | 22.78° C | 56% | 1030.8 hPa | 0 mm | - | - | - |
| 1778064542 | 22.78° C | 57% | 1030.9 hPa | 0 mm | - | - | - |
| 1778064241 | 22.22° C | 56% | 1030.8 hPa | 0 mm | - | - | - |
| 1778063941 | 23.33° C | 56% | 1030.8 hPa | 0 mm | - | - | - |
| 1778063640 | 23.33° C | 54% | 1030.7 hPa | 0 mm | - | - | - |
* Rain latest hour (hover to see other rain measurements)
** Current wind speed in m/s (hover to see current wind gust speed)